|
NORAD ID: 36093 Int'l Code: 2009-061F
Perigee: 701.6 km
Apogee: 929.5 km
Inclination: 98.1 °
Period: 101.1 minutes
Semi major axis: 7186 km
Launch date: November 12, 2009
Source: People's Republic of China (PRC)
Note: This is SATELLITE DEBRIS
Two Line Element Set (TLE):
1 36093U 09061F 13140.95979557 .00002343 00000-0 89288-3 0 5774
2 36093 098.0908 106.7744 0158531 338.2210 061.5357 14.25032578182801
Source:
NASA's NSSDC Master Catalog entry for CZ-2C DEB
|